sat.trackr.live / text

‹ back to catalog

STARLINK-5171

NORAD 54077 · 2022-136AC

PAYLOAD ACTIVE UNKNOWN

§ Identity

Operator
Country
US
Launch date
2022-10-20
Launch site
AFETR
Launch vehicle
Mass (kg)
RCS (m²)

Purposes: comms

External: N2YO · Heavens-Above · Gunter

§ Orbital elements

Epoch: 2026-05-24T23:20:46.655808Z

Period
95.44 min
Inclination
53.2112°
Eccentricity
0.0001182
Mean motion
15.08836409 rev/d
Perigee alt
538.9 km
Apogee alt
540.6 km
Semi-major
6,917.9 km
B*
3.0707e-5
RAAN
337.3080°
Arg perigee
90.9302°
Mean anomaly
269.1826°
Rev number
19,870

§ Raw data

STARLINK-51711 54077U 22136AC  26144.97276222  .00000201  00000+0  30707-4 0  99942 54077  53.2112 337.3080 0001182  90.9302 269.1826 15.08836409198701

JSON: /api/v1/satellites/54077 · /tle

For live sub-satellite position, see the globe view (requires WebGL).

§ Visibility from observer

Set your observer location to see the next 7 days of passes ≥ 10°. The values pass through the URL so the page stays shareable.

No JS? Fill the form by hand. The geolocation button needs JavaScript.